DW9440 Weather Reports


Display with metric or nautical units.
time (UTC)temp
F
wind
direction
speed
MPH
gust
MPH
rain 1hr
in
rain 24hr
in
rain mn
in
humidity
%
barometer
mb
20260504081541 58 213 0.0 8.0 0.00 0.00 0.00 71 1005.6
20260504050012 62 238 0.0 2.0 0.00 0.00 0.00 58 1007.1
20260504044521 62 230 0.0 2.0 0.00 0.00 0.00 59 1007.3
20260504043015 62 233 1.0 3.0 0.00 0.00 0.00 59 1007.3
20260504041510 62 148 0.0 0.0 0.00 0.00 0.00 59 1007.5
20260504040008 63 103 0.0 0.0 0.00 0.00 0.00 57 1007.4
20260504034508 63 209 0.0 1.0 0.00 0.00 0.00 56 1007.8
20260504033108 64 206 1.0 4.0 0.00 0.00 0.00 56 1008.0
20260504031507 63 346 0.0 2.0 0.00 0.00 0.00 57 1007.7
20260504030008 63 290 0.0 2.0 0.00 0.00 0.00 58 1007.9
20260504024509 64 283 1.0 2.0 0.00 0.00 0.00 56 1008.1
20260504023008 63 271 0.0 1.0 0.00 0.00 0.00 58 1008.0
20260504021506 64 272 1.0 2.0 0.00 0.00 0.00 59 1008.4
20260504020007 64 278 1.0 3.0 0.00 0.00 0.00 59 1008.1
20260504014506 65 242 2.0 5.0 0.00 0.00 0.00 56 1007.7
20260504013004 63 284 0.0 2.0 0.00 0.00 0.00 64 1007.8
20260504011504 64 272 0.0 1.0 0.00 0.00 0.00 60 1007.9
20260504010002 65 263 0.0 1.0 0.00 0.00 0.00 57 1007.9
20260504004502 66 227 0.0 2.0 0.00 0.00 0.00 55 1007.9
20260504003001 66 262 0.0 1.0 0.00 0.00 0.00 54 1007.8
20260504001501 67 262 0.0 2.0 0.00 0.00 0.00 54 1007.5
20260504000100 68 281 1.0 3.0 0.00 0.00 0.00 51 1008.0
20260503234600 68 274 1.0 4.0 0.00 0.00 0.00 51 1007.9
20260503233059 69 271 0.0 3.0 0.00 0.00 0.00 50 1007.6
20260503231558 69 245 3.0 5.0 0.00 0.00 0.00 49 1008.2
20260503230100 69 269 3.0 10.0 0.00 0.00 0.00 48 1007.9
20260503224556 70 292 5.0 12.0 0.00 0.00 0.00 49 1008.6
20260503223056 70 276 5.0 11.0 0.00 0.00 0.00 49 1007.8
20260503221555 70 271 6.0 16.0 0.00 0.00 0.00 47 1007.8
20260503220054 70 267 6.0 12.0 0.00 0.00 0.00 47 1007.7
20260503214552 71 251 6.0 11.0 0.00 0.00 0.00 48 1007.7
20260503213056 71 287 8.0 16.0 0.00 0.00 0.00 46 1008.2
20260503211550 71 274 5.0 9.0 0.00 0.00 0.00 46 1008.2
20260503210052 71 239 8.0 13.0 0.00 0.00 0.00 46 1008.4
20260503204542 70 254 7.0 11.0 0.00 0.00 0.00 46 1008.6
20260503203040 69 283 5.0 16.0 0.00 0.00 0.00 46 1008.9
20260503201537 69 252 8.0 15.0 0.00 0.00 0.00 45 1008.5
20260503200036 67 255 7.0 12.0 0.00 0.00 0.00 47 1009.3
20260503194530 67 244 3.0 11.0 0.00 0.00 0.00 46 1009.8
20260503193034 66 234 4.0 12.0 0.00 0.00 0.00 46 1010.1
20260503191527 66 172 4.0 12.0 0.00 0.00 0.00 46 1010.2
20260503190030 66 224 6.0 13.0 0.00 0.00 0.00 44 1010.4
20260503184526 66 275 5.0 15.0 0.00 0.00 0.00 46 1009.8
20260503183034 65 205 5.0 14.0 0.00 0.00 0.00 44 1010.5
20260503181519 65 253 8.0 19.0 0.00 0.00 0.00 43 1010.9
20260503180021 64 217 10.0 21.0 0.00 0.00 0.00 43 1011.0
20260503174516 64 172 11.0 19.0 0.00 0.00 0.00 42 1010.9
20260503173017 64 201 7.0 19.0 0.00 0.00 0.00 44 1011.5
20260503171513 66 226 6.0 15.0 0.00 0.00 0.00 43 1011.7